Weather History for Okeechobee, FL

Change the Weather History Date:

Wednesday, November 21, 2012

  Actual Average Record
Temperature  
Mean Temperature 60 °F -  
Max Temperature 71 °F 79 °F 87 °F (1988)
Min Temperature 50 °F 58 °F 38 °F (1968)
Degree Days  
Heating Degree Days 4    
Growing Degree Days 10 (Base 50)    
Moisture  
Dew Point 50 °F    
Average Humidity 74    
Maximum Humidity 100    
Minimum Humidity 40    
Precipitation  
Precipitation 0.00 in - - ()
Sea Level Pressure  
Sea Level Pressure 30.02 in    
Wind  
Wind Speed 7 mph (NNW)    
Max Wind Speed 16 mph    
Max Gust Speed 22 mph    
Visibility 10 miles    
Events      
Averages and records for this station are not official NWS values.
T = Trace of Precipitation, MM = Missing Value Source: NWS Daily Summary

Daily Weather History Graph

Daily Weather History Graph

Search for Another Location

Airport:

Trip Planner

Search our weather history database for the weather conditions in past years. The results will help you decide how hot, cold, wet, or windy it might be!

Date:

Astronomy

Nov. 21, 2012 Rise Set
Actual Time 6:48 AM EST 5:29 PM EST
Civil Twilight 6:23 AM EST 5:54 PM EST
Nautical Twilight 5:55 AM EST 6:23 PM EST
Astronomical Twilight 5:27 AM EST 6:51 PM EST
Moon 1:15 PM EST (11/21) 12:39 AM EST (11/21)
Length of Visible Light 11h 31m
Length of Day
10h 41m
First Quarter, 61% of the Moon is Illuminated
Nov 21
First Quarter
Nov 28
Full
Dec 6
Last Quarter
Dec 13
New
Dec 20
First Quarter

Hourly Weather History & Observations

Time (EST) Temp. Dew Point Humidity Pressure Visibility Wind Dir Wind Speed Gust Speed Precip Events Conditions
12:15 AM 53.6 °F 51.8 °F 94% 30.02 in 10.0 mi NNW 4.6 mph - N/A   Clear
12:35 AM 53.6 °F 51.8 °F 94% 30.01 in 10.0 mi NNW 4.6 mph - N/A   Clear
12:55 AM 53.6 °F 51.8 °F 94% 30.01 in 10.0 mi NW 4.6 mph - N/A   Clear
1:15 AM 53.6 °F 51.8 °F 94% 30.01 in 10.0 mi NW 3.5 mph - N/A   Clear
1:35 AM 51.8 °F 51.8 °F 100% 30.01 in 10.0 mi NW 3.5 mph - N/A   Clear
1:55 AM 51.8 °F 50.0 °F 94% 30.01 in 10.0 mi NW 3.5 mph - N/A   Clear
2:15 AM 51.8 °F 50.0 °F 94% 30.00 in 10.0 mi NW 4.6 mph - N/A   Clear
2:35 AM 51.8 °F 50.0 °F 94% 30.00 in 10.0 mi NW 3.5 mph - N/A   Clear
3:15 AM 51.8 °F 50.0 °F 94% 29.99 in 10.0 mi NW 5.8 mph - N/A   Clear
3:35 AM 51.8 °F 50.0 °F 94% 29.99 in 10.0 mi NW 6.9 mph - N/A   Clear
3:55 AM 51.8 °F 50.0 °F 94% 29.99 in 10.0 mi NW 6.9 mph - N/A   Clear
4:15 AM 51.8 °F 50.0 °F 94% 29.99 in 10.0 mi NW 6.9 mph - N/A   Clear
4:35 AM 51.8 °F 50.0 °F 94% 29.99 in 10.0 mi NW 8.1 mph - N/A   Clear
5:15 AM 51.8 °F 51.8 °F 100% 29.99 in 10.0 mi NW 5.8 mph - N/A   Clear
5:35 AM 51.8 °F 50.0 °F 94% 30.00 in 10.0 mi NW 5.8 mph - N/A   Clear
5:55 AM 51.8 °F 50.0 °F 94% 30.01 in 10.0 mi NW 5.8 mph - N/A   Clear
6:15 AM 51.8 °F 50.0 °F 94% 30.01 in 10.0 mi NW 6.9 mph - N/A   Clear
6:35 AM 51.8 °F 50.0 °F 94% 30.01 in 10.0 mi NW 5.8 mph - N/A   Clear
7:15 AM 51.8 °F 50.0 °F 94% 30.02 in 10.0 mi NW 5.8 mph - N/A   Clear
7:35 AM 53.6 °F 51.8 °F 94% 30.03 in 10.0 mi NW 6.9 mph - N/A   Clear
8:15 AM 55.4 °F 51.8 °F 88% 30.04 in 10.0 mi NNW 8.1 mph - N/A   Clear
8:35 AM 57.2 °F 53.6 °F 88% 30.04 in 10.0 mi NNW 8.1 mph - N/A   Clear
8:55 AM 59.0 °F 53.6 °F 82% 30.05 in 10.0 mi NNW 8.1 mph - N/A   Clear
9:15 AM 60.8 °F 53.6 °F 77% 30.05 in 10.0 mi NNW 11.5 mph - N/A   Clear
9:35 AM 62.6 °F 53.6 °F 72% 30.05 in 10.0 mi NNW 12.7 mph - N/A   Clear
9:55 AM 64.4 °F 53.6 °F 68% 30.05 in 10.0 mi NNW 13.8 mph 19.6 mph N/A   Clear
10:15 AM 64.4 °F 55.4 °F 73% 30.06 in 10.0 mi NNW 11.5 mph 19.6 mph N/A   Clear
10:35 AM 66.2 °F 55.4 °F 68% 30.06 in 10.0 mi NNW 13.8 mph - N/A   Clear
10:55 AM 68.0 °F 55.4 °F 64% 30.05 in 10.0 mi NNW 11.5 mph - N/A   Clear
11:15 AM 69.8 °F 53.6 °F 56% 30.04 in 10.0 mi NNW 16.1 mph - N/A   Clear
11:35 AM 69.8 °F 51.8 °F 53% 30.04 in 10.0 mi NNW 15.0 mph 19.6 mph N/A   Clear
11:55 AM 69.8 °F 50.0 °F 49% 30.03 in 10.0 mi NNW 16.1 mph 21.9 mph N/A   Clear
12:15 PM 71.6 °F 51.8 °F 50% 30.02 in 10.0 mi NNW 10.4 mph 17.3 mph N/A   Clear
12:35 PM 71.6 °F 50.0 °F 46% 30.01 in 10.0 mi NNW 15.0 mph 20.7 mph N/A   Clear
1:15 PM 71.6 °F 50.0 °F 46% 30.00 in 10.0 mi NNW 13.8 mph 18.4 mph N/A   Clear
1:35 PM 69.8 °F 50.0 °F 49% 29.99 in 10.0 mi NW 10.4 mph 19.6 mph N/A   Clear
1:55 PM 71.6 °F 50.0 °F 46% 29.99 in 10.0 mi NW 9.2 mph 18.4 mph N/A   Clear
2:15 PM 71.6 °F 50.0 °F 46% 29.98 in 10.0 mi North 12.7 mph 20.7 mph N/A   Clear
2:35 PM 69.8 °F 46.4 °F 43% 29.98 in 10.0 mi North 15.0 mph 20.7 mph N/A   Clear
2:55 PM 69.8 °F 46.4 °F 43% 29.98 in 10.0 mi NNW 16.1 mph 19.6 mph N/A   Clear
3:15 PM 69.8 °F 44.6 °F 40% 29.98 in 10.0 mi NW 15.0 mph 19.6 mph N/A   Clear
3:35 PM 69.8 °F 44.6 °F 40% 29.98 in 10.0 mi NNW 16.1 mph 19.6 mph N/A   Scattered Clouds
4:15 PM 68.0 °F 50.0 °F 52% 29.98 in 10.0 mi NNW 13.8 mph 17.3 mph N/A   Scattered Clouds
4:35 PM 68.0 °F 48.2 °F 49% 29.99 in 10.0 mi NNW 11.5 mph - N/A   Clear
4:55 PM 68.0 °F 48.2 °F 49% 29.99 in 10.0 mi North 11.5 mph 17.3 mph N/A   Clear
5:15 PM 66.2 °F 44.6 °F 46% 30.00 in 10.0 mi North 11.5 mph - N/A   Clear
5:35 PM 64.4 °F 44.6 °F 49% 30.00 in 10.0 mi North 5.8 mph - N/A   Clear
6:15 PM 59.0 °F 46.4 °F 63% 30.01 in 10.0 mi North 4.6 mph - N/A   Clear
6:35 PM 59.0 °F 46.4 °F 63% 30.01 in 10.0 mi North 5.8 mph - N/A   Clear
6:55 PM 55.4 °F 46.4 °F 72% 30.02 in 10.0 mi North 5.8 mph - N/A   Clear
7:15 PM 55.4 °F 46.4 °F 72% 30.03 in 10.0 mi North 4.6 mph - N/A   Clear
7:35 PM 55.4 °F 46.4 °F 72% 30.04 in 10.0 mi North 6.9 mph - N/A   Clear
7:55 PM 53.6 °F 48.2 °F 82% 30.04 in 10.0 mi North 5.8 mph - N/A   Clear
8:15 PM 53.6 °F 48.2 °F 82% 30.04 in 10.0 mi North 4.6 mph - N/A   Clear
8:35 PM 53.6 °F 48.2 °F 82% 30.05 in 10.0 mi North 5.8 mph - N/A   Clear
8:55 PM 55.4 °F 48.2 °F 77% 30.06 in 10.0 mi North 8.1 mph - N/A   Clear
9:15 PM 55.4 °F 46.4 °F 72% 30.06 in 10.0 mi North 8.1 mph - N/A   Clear
9:35 PM 53.6 °F 46.4 °F 77% 30.07 in 10.0 mi North 6.9 mph - N/A   Clear
10:15 PM 53.6 °F 46.4 °F 77% 30.07 in 10.0 mi NNW 4.6 mph - N/A   Clear
10:35 PM 51.8 °F 46.4 °F 82% 30.07 in 10.0 mi NW 5.8 mph - N/A   Clear
10:55 PM 51.8 °F 46.4 °F 82% 30.07 in 10.0 mi NNW 3.5 mph - N/A   Clear
11:15 PM 50.0 °F 46.4 °F 87% 30.07 in 10.0 mi NNW 4.6 mph - N/A   Clear
11:35 PM 50.0 °F 46.4 °F 87% 30.08 in 10.0 mi NW 4.6 mph - N/A   Clear